Regional Weather Roundup
Issued by NWS

Home | Current Version | Previous Version | Text Only | Print | Product List | Glossary On
Versions: 1 2 3 4 5 6 7 8 9 10 11 12 13 14 15 16 17 18 19 20 21 22 23 24 25 26 27 28 29 30 31 32 33 34 35 36 37 38 39 40 41 42 43 44 45 46 47 48 49 50
000
ASUS44 KFWD 111515
RWRTX
NORTH TEXAS HOURLY WEATHER ROUNDUP
NATIONAL WEATHER SERVICE FORT WORTH TX
1000 AM CDT FRI JUL 11 2014

NOTE: "FAIR" INDICATES FEW OR NO CLOUDS BELOW 12,000 FEET WITH NO
SIGNIFICANT WEATHER AND/OR OBSTRUCTIONS TO VISIBILITY.

TXZ118-119-111600-
DALLAS/FORT WORTH METROPLEX

CITY           SKY/WX    TMP DP  RH WIND       PRES   REMARKS
DFW AIRPORT    MOSUNNY   85  64  49 SW17G23   30.13R
DALLAS LOVE    MOSUNNY   85  64  49 SW13G20   30.13S
FTW MEACHAM    SUNNY     85  65  51 S14       30.12S
DAL-EXECUTIVE  SUNNY     85  65  51 VRB7      30.13S
FTW-ALLIANCE   MOSUNNY   84  65  52 SW8G17    30.12S
FTW-NAS-JRB    SUNNY     86  63  45 S13       30.17R
FTW-SPINKS     SUNNY     84  66  54 SW15      30.15S
ARLINGTON      SUNNY     84  64  50 S8        30.13S
GRAND PRAIRIE  SUNNY     82  64  54 S9        30.15R
ADDISON        SUNNY     84  63  48 SW9G17    30.14R
MESQUITE       SUNNY     82  64  54 S10       30.15R
LANCASTER      SUNNY     83  65  53 SW12      30.15S
$$

TXZ091>094-102>105-117-120-121-131>134-111600-
NORTH CENTRAL TEXAS

CITY           SKY/WX    TMP DP  RH WIND       PRES   REMARKS
SHRMAN/DENISON SUNNY     85  64  48 SW13      30.14S
GAINESVILLE    SUNNY     85  64  49 SW13G21   30.15R
BOWIE          SUNNY     83  65  55 S12       30.13R
BRIDGEPORT     SUNNY     83  62  49 SW12G17   30.15S
DECATUR        SUNNY     82  62  51 SW10      30.14S
DENTON         SUNNY     84  64  50 SW15      30.13R
MCKINNEY       SUNNY     85  64  49 SW13      30.13R
GREENVILLE     SUNNY     84  63  48 SW12      30.15S
ROCKWALL       SUNNY     82  66  58 SW9       30.13S
TERRELL        SUNNY     85  66  53 S15       30.15R
WAXAHACHIE     SUNNY     82  64  55 S8        30.16R
CLEBURNE       SUNNY     81  70  69 S9        30.16S
GRANBURY       SUNNY     85  66  53 S13       30.15R
$$

TXZ083>090-098>101-113>116-127>130-139>142-154-155-111600-
WESTERN NORTH TEXAS

CITY           SKY/WX    TMP DP  RH WIND       PRES   REMARKS
WICHITA FALLS  SUNNY     83  64  52 S18G25    30.10R
WF-KICKAPOO    SUNNY     83  61  47 SW14G26   30.12S
VERNON         SUNNY     85  60  42 S16       30.10S
ABILENE        SUNNY     80  64  58 S15G23    30.14S
ABILENE-DYESS  SUNNY     81  64  55 S18       30.13R
BRECKENRIDGE   SUNNY     84  63  48 S14       30.12F
MINERAL WELLS  SUNNY     82  66  58 SW15      30.12S
STEPHENVILLE   SUNNY     81  65  58 S12G18    30.18R
COMANCHE       MOSUNNY   78  65  65 S14       30.16R
BROWNWOOD      CLOUDY    79  66  65 S14       30.15S HAZE
COLEMAN        MOSUNNY   78  63  60 S15       30.16R
BRADY          MOSUNNY   75  66  73 SE13      30.15R
$$

TXZ143>147-156>162-174-175-111600-
CENTRAL TEXAS

CITY           SKY/WX    TMP DP  RH WIND       PRES   REMARKS
WACO           SUNNY     81  68  64 S8        30.15R
WACO-TSTC      SUNNY     81  68  65 S8        30.15S
WACO-MCGREGOR  SUNNY     84  66  54 S16       30.16S
HILLSBORO      SUNNY     82  67  59 SE10      30.15S
CORSICANA      SUNNY     84  67  56 SW12      30.16R
MEXIA          SUNNY     81  69  67 S8        30.15S
HEARNE         SUNNY     86  74  67 SE5       30.15S HX  94
CAMERON        SUNNY     80  70  71 S6        30.15S
TEMPLE         SUNNY     81  64  57 S12       30.16R
KILLEEN        PTSUNNY   81  68  65 SE13G18   30.15R
KILLEEN-SKYLRK MOSUNNY   81  64  57 SE10      30.15S
FORT HOOD      MOSUNNY   82  68  62 SE13G18   30.15S
GATESVILLE     SUNNY     81  66  61 S8        30.17S
HAMILTON       SUNNY     81  67  63 S15G22    30.17S
LAMPASAS       CLOUDY    76  68  78 S8        30.15R
$$

TXZ095>097-106>112-122>126-135>138-148>153-164>167-111600-
EAST TEXAS

CITY           SKY/WX    TMP DP  RH WIND       PRES   REMARKS
PARIS          SUNNY     84  64  51 SW16      30.15S
SULPHUR SPRNGS SUNNY     85  64  49 SW13      30.17R
CLARKSVILLE    SUNNY     86  66  50 S6        30.15R
MOUNT PLEASANT SUNNY     84  65  51 SW6       30.17R
GILMER         SUNNY     82  66  57 W7        30.18R
MINEOLA        SUNNY     82  68  61 SW7       30.16S
TYLER          SUNNY     83  67  58 SW9       30.16S
LONGVIEW       SUNNY     84  67  56 VRB7      30.15R
MARSHALL         N/A     89  71  56 W8        30.18S HX  95
ATHENS         SUNNY     81  68  65 S5        30.15R
PALESTINE      SUNNY     81  66  59 S6        30.18R
JACKSONVILLE   SUNNY     83  70  65 S5        30.19S
HENDERSON      SUNNY     83  68  60 SW8       30.17S
NACOGDOCHES    SUNNY     82  72  69 SW5       30.17R
LUFKIN         SUNNY     86  73  65 VRB3      30.16S HX  93
$$

SUPPLEMENTAL OBSERVATIONS (CENTRAL)

CITY           SKY/WX    TMP DP  RH WIND       PRES   REMARKS
LAKE TEXOMA      N/A     82  59  44 SW14        N/A
CADDO GRASSLND   N/A     84  63  48 S14         N/A
PAT MAYSE LAKE   N/A     82  66  57 S12         N/A
GREENVILLE       N/A     84  64  51 SW9         N/A
CEDAR HILL       N/A     84  66  54 S8          N/A
ATHENS           N/A     84  66  54 S6          N/A
MCGREGOR         N/A     82  66  57 S13         N/A
$$

SUPPLEMENTAL OBSERVATIONS (WEST)

CITY           SKY/WX    TMP DP  RH WIND       PRES   REMARKS
MILLERS CREEK    N/A     82  64  54 S14         N/A
LBJ GRASSLAND    N/A     84  64  51 S9          N/A
GRANBURY         N/A     84  66  54 S14         N/A
HAMBY            N/A     81  63  54 S20         N/A
IVIE RESERVOIR   N/A     79  64  61 S12G20      N/A
COLORADO BEND    N/A     75  66  73 S9          N/A
$$

SUPPLEMENTAL OBSERVATIONS (EAST)

CITY           SKY/WX    TMP DP  RH WIND       PRES   REMARKS
TEXARKANA        N/A     86  68  54 W5          N/A
CADDO LAKE       N/A     86  66  51 NW5         N/A
GILMER           N/A     86  66  51 SW6         N/A
HENDERSON        N/A     84  70  61 SW8         N/A
LUFKIN           N/A     84  81  89 MISG        N/A  HX  98
N SABINE NF      N/A     84  72  65 MISG        N/A
S SABINE NF      N/A     90  77  66 SE3         N/A  HX 102
$$

SUPPLEMENTAL OBSERVATIONS ARE A COLLECTION OF AUTOMATED INSTRUMENTS
THAT ARE MAINTAINED BY A VARIETY OF FEDERAL AND STATE AGENCIES.
CERTAIN ELEMENTS...SUCH AS HUMIDITY VALUES AND SUSTAINED WIND
SPEEDS...MAY BE APPROXIMATED.




USA.gov is the U.S. government's official web portal to all federal, state and local government web resources and services.